Regional Weather Roundup
Issued by NWS Upton, NY

Current Version | Previous Version | Graphics & Text | Print | Product List | Glossary Off
Versions: 1 2 3 4 5 6 7 8 9 10 11 12 13 14 15 16 17 18 19 20 21 22 23 24 25 26 27 28 29 30 31 32 33 34 35 36 37 38 39 40 41 42 43 44 45 46 47 48 49 50

000
ASUS41 KOKX 050104
RWROKX

REGIONAL WEATHER ROUNDUP
NATIONAL WEATHER SERVICE NEW YORK NY
900 PM EDT WED MAY 04 2016

NOTE: "FAIR" INDICATES FEW OR NO CLOUDS BELOW 12,000 FEET WITH NO
SIGNIFICANT WEATHER AND/OR OBSTRUCTIONS TO VISIBILITY.

NYZ071-072-176-178-NJZ106-104-050200-
NEW YORK CITY METRO AREA


CITY           SKY/WX    TMP DP  RH WIND       PRES   REMARKS
CENTRAL PARK   CLOUDY    50  44  80 NE12G18   29.77R
LAGUARDIA APRT CLOUDY    52  48  86 NE15      29.75R
KENNEDY INTL   CLOUDY    50  45  83 NE14      29.76R
NEWARK/LIBERTY CLOUDY    51  47  86 NE12      29.75S
BRNX BOT. GARD   N/A     48  43  81 NE5       29.76S
TETERBORO      DRIZZLE   50  45  83 NE8       29.75R
$$

NYZ177-179-078>081-050200-
LONG ISLAND NEW YORK

CITY           SKY/WX    TMP DP  RH WIND       PRES   REMARKS
FARMINGDALE    CLOUDY    48  44  86 NE12G17   29.75S
ISLIP          CLOUDY    46  43  89 N13       29.76R
SHIRLEY        CLOUDY    47  43  86 N9G16     29.75R
RIVERHEAD        N/A     46  45  93 NE3       29.73F
WESTHAMPTON    CLOUDY    43  42  97 NE21G32   29.72F
EAST HAMPTON   CLOUDY    45  42  91 NE7G16    29.75R
MONTAUK POINT    N/A     46  43  89 N14G21    29.77R
$$

NYZ052-065-067-050200-
HUDSON VALLEY

CITY           SKY/WX    TMP DP  RH WIND       PRES   REMARKS
WHITE PLAINS   CLOUDY    48  43  82 NE5       29.75S
NEWBURGH       MOCLDY    46  46 100 NE12      29.78R
MONTGOMERY     CLOUDY    49  45  86 NE10      29.77R
POUGHKEEPSIE   CLOUDY    50  43  77 NE7       29.78R
ALBANY         CLOUDY    49  42  77 E3        29.81R
$$

NJZ001-105-106-008-010-013-015-019>022-104-050200-
NEW JERSEY

CITY           SKY/WX    TMP DP  RH WIND       PRES   REMARKS
NEWARK/LIBERTY CLOUDY    51  47  86 NE12      29.75S
TETERBORO      DRIZZLE   50  45  83 NE8       29.75R
CALDWELL       CLOUDY    50  30  46 NE6       29.76R
MORRISTOWN     CLOUDY    50  46  87 NE6       29.76R
SOMERVILLE     CLOUDY    51  46  83 VRB7      29.73R
SUSSEX         CLOUDY    48  45  89 NE7       29.76R
ANDOVER          N/A     49  46  90 VRB3      29.75R
TRENTON        CLOUDY    49  47  93 NE5       29.73S FOG
MILLVILLE      CLOUDY    50  45  83 NE10      29.72R
ATLANTIC CITY  CLOUDY    49  46  90 NE16      29.71R
WRIGHTSTOWN    CLOUDY    49  47  91 NE8       29.71R
TOMS RIVER     CLOUDY    48  43  81 NE13      29.73S
BELMAR         CLOUDY    49  47  93 NE9       29.74S
$$

PAZ047>061-062-071-050200-
EASTERN PENNSYLVANIA

CITY           SKY/WX    TMP DP  RH WIND       PRES   REMARKS
PHILADELPHIA   DRIZZLE   51  46  83 E9        29.75R
ALLENTOWN      CLOUDY    51  45  79 E6        29.75R
SCRANTON       CLOUDY    49  44  83 NE7       29.73R
$$

CTZ002-004>006-009-010-012-RIZ004-006-007-MAZ004-011-015-050200-
SOUTHERN NEW ENGLAND
 IN CT

CITY           SKY/WX    TMP DP  RH WIND       PRES   REMARKS
BRADLEY INTL   LGT RAIN  47  41  80 NE9       29.80R
HARTFORD       LGT RAIN  48  42  80 NE10      29.79R
DANBURY        CLOUDY    47  42  83 NE8       29.78R
WTRBRY/OXFORD    N/A     45  39  81 NE8       29.79R
BRIDGEPORT     CLOUDY    49  44  83 N6        29.78R
MERIDEN        LGT RAIN  47  43  86 N5        29.78R
NEW HAVEN      CLOUDY    46  43  89 N8        29.76S
CHESTER        LGT RAIN  45  43  93 NE10      29.76R
GROTON         LGT RAIN  45  45 100 NE13      29.78R
WILLIMANTIC    LGT RAIN  47  41  80 NE10      29.79R

 IN RI

CITY           SKY/WX    TMP DP  RH WIND       PRES   REMARKS
PROVIDENCE     LGT RAIN  44  41  89 N10G20    29.79R
BLOCK ISLAND   CLOUDY    44  43  96 NE16G25   29.74F
WESTERLY       LGT RAIN  45  41  86 N8G20     29.78R

 IN MA

CITY           SKY/WX    TMP DP  RH WIND       PRES   REMARKS
BOSTON         LGT RAIN  44  42  93 NE15      29.83R FOG
WORCESTER      LGT RAIN  40  38  93 NE12G24   29.78F WCI  33
WESTFIELD      CLOUDY    46  43  89 N7        29.81R FOG
PROVINCETOWN   RAIN      44  43  96 NE15G23   29.79R FOG
NANTUCKET      LGT RAIN  46  44  93 N21G30    29.71R
$$

ANZ330-335-338-340-345-350-353-355-050200-
COASTAL MARINE OBSERVATIONS


STATION/POSITION TIME  SKY/WX   TEMP    WIND        PRES    VSBY  WAVE
                                AIR SEA DIR/SP/G                  HT/PER
                 (UTC)          (F)     (DEG/KT/KT) (MB)    (MI)  (FT/S)
NY HARB ENTRANCE 2350            50 50   40/ 12/ 14 1006.5          7/ 7
20S FIRE ISLAND  2350            47 48   40/ 17/ 23 1005.6          8/ 7
GREAT SOUTH BAY  0000            49 54  330/  8/ 17   N/A
23 SSW MONTAUK P 0050            45 46   30/ 21/ 27 1005.5          7/ 6
15 E BARNEGAT LI 0022               50                N/A           8/ 7
HUDSON CANYON    2350            47 48              1003.1          7/ 7
KINGS POINT      0000            50 53              1007.0
EXECUTION ROCKS  NOT AVBL
CENTRAL LI SOUND NOT AVBL
EASTERN LI SOUND 0000            46 47   40/ 17/ 25   N/A
ROBBINS REEF     0000            50                 1006.4
$$


>>>>>>>>>>>>>>>>>>>>>>>>>>>> KEY <<<<<<<<<<<<<<<<<<<<<<<<<<<
>                                                          <
>     SKY/WX - SKY CONDITION/PRESENT WEATHER               <
>     TMP    - TEMPERATURE IN FAHRENHEIT                   <
>     DP     - DEWPOINT IN FAHRENHEIT                      <
>     RH     - RELATIVE HUMIDITY IN PERCENT                <
>     WIND   - DIRECTION AND SPEED IN MPH                  <
>     PRES   - MEAN SEA LEVEL PRESSURE IN INCHES OF HG     <
>     WCI    - WIND CHILL INDEX                            <
>     VSB    - VISIBILITY IN MILES                         <
>     HX     - HEAT INDEX                                  <
>     TC     - TEMPERATURE IN CELSIUS                      <
>     VRB    - VARIABLE WIND DIRECTION                     <
>                                                          <
>>>>>>>>>>>>>>>>>>>>>>>>>>>> KEY <<<<<<<<<<<<<<<<<<<<<<<<<<<





USA.gov is the U.S. government's official web portal to all federal, state and local government web resources and services.